Starlink 5577

operational
NORAD ID: 55751 Int'l Des: 2023-028 Owner: SPXS Country: US Constellation: starlink
LEOCIRCULAR

About Starlink 5577

Description loading...

Live Position

Loading 3D Globe...

Upcoming Passes

Altitude History

Altitude vs Time

uPlot chart will show altitude changes over time

Two-Line Element Set

1 55751U 23028L 25353.41573075 .00001525 00000-0 13557-3 0 9995
2 55751 70.0001 86.9469 0003265 270.0412 90.0373 14.98341430154017
Epoch: Dec 19, 2025 • Age: 30 hours

Current Status

Altitude 587.4 km
Velocity 7.57 km/s
Sub-Earth Point -46.01°S, 41.24°W
Launch Date Mar 3, 2023
Age 2.7 years
Type internet

Technical Details

Classification Payload
Mass 305.00 kg
Dry Mass 290.00 kg
Total Mass 305.00 kg
Length 0.20 m
Diameter 2.80 m
Span 9.00 m
Shape Box + pan
Manufacturer SPXS
Bus Type Starlink
Phase Status In Orbit
Owner/State SPXS/US

Large Constellations

Loading constellations...